This is the latest recevied weather packets stored in our database for station/object K7YVO. If no packets are shown the sender has not sent any weather packets the latest 10 day(s).
| Time | Temp. | Humidity | Pressure | Rain* | Wind** | Luminosity | Snow |
|---|---|---|---|---|---|---|---|
| 1777393273 | 10° C | 81% | 1025.1 hPa | 0 mm | - | 172 W/m² | - |
| 1777392970 | 10° C | 81% | 1025.1 hPa | 0 mm | - | 138 W/m² | - |
| 1777392669 | 10° C | 82% | 1025.3 hPa | 0 mm | - | 166 W/m² | - |
| 1777392366 | 10° C | 82% | 1025.2 hPa | 0 mm | - | 146 W/m² | - |
| 1777392061 | 10° C | 82% | 1025.1 hPa | 0 mm | - | 138 W/m² | - |
| 1777391756 | 10° C | 83% | 1025.2 hPa | 0 mm | - | 138 W/m² | - |
| 1777391453 | 9.44° C | 84% | 1025.2 hPa | 0 mm | - | 163 W/m² | - |
| 1777391149 | 9.44° C | 84% | 1025.2 hPa | 0 mm | - | 130 W/m² | - |
| 1777390845 | 8.89° C | 85% | 1025.2 hPa | 0 mm | - | 87 W/m² | - |
| 1777390543 | 8.89° C | 85% | 1025.2 hPa | 0 mm | - | 48 W/m² | - |
| 1777390239 | 8.89° C | 85% | 1025.2 hPa | 0 mm | - | 48 W/m² | - |
| 1777389935 | 8.89° C | 86% | 1025.2 hPa | 0 mm | - | 51 W/m² | - |
| 1777389632 | 8.89° C | 87% | 1025.3 hPa | 0 mm | - | 53 W/m² | - |
| 1777389328 | 8.89° C | 86% | 1025.2 hPa | 0 mm | - | 34 W/m² | - |
| 1777389026 | 8.33° C | 87% | 1025 hPa | 0 mm | - | 32 W/m² | - |
| 1777388724 | 8.33° C | 87% | 1025 hPa | 0 mm | - | 34 W/m² | - |
| 1777388420 | 8.33° C | 87% | 1024.9 hPa | 0 mm | - | 17 W/m² | - |
| 1777388120 | 8.33° C | 87% | 1025.1 hPa | 0 mm | - | 16 W/m² | - |
| 1777387816 | 8.33° C | 87% | 1025 hPa | 0 mm | - | 14 W/m² | - |
| 1777387513 | 8.89° C | 87% | 1024.8 hPa | 0 mm | - | 13 W/m² | - |
| 1777387208 | 8.89° C | 86% | 1024.8 hPa | 0 mm | - | 19 W/m² | - |
| 1777386903 | 8.89° C | 87% | 1024.8 hPa | 0 mm | - | 26 W/m² | - |
| 1777386601 | 8.33° C | 87% | 1024.6 hPa | 0 mm | - | 28 W/m² | - |
| 1777386298 | 8.33° C | 87% | 1024.7 hPa | 0 mm | - | 20 W/m² | - |
| 1777385995 | 8.33° C | 87% | 1024.8 hPa | 0 mm | - | 20 W/m² | - |
* Rain latest hour (hover to see other rain measurements)
** Current wind speed in m/s (hover to see current wind gust speed)